Location: *
(45.8589°N, 4.7139°E)
Time: 15:41:30
(UTC+00:00)

SL-08 RB Rocket - Pass Details

Date: 09 April 2020
Orbit: 646 x 685 km, 97.8° (Epoch: 27 May)

Event Time Altitude Azimuth Distance (km) Brightness Sun altitude
Exits shadow 18:56:19 - 146° (SE) 2,784 6.4 -6.8°
Reaches altitude 10° 18:58:06 10° 140° (SE) 2,086 5.7 -7.1°
Maximum altitude 19:02:24 43° 70° (ENE) 949 4.2 -7.8°
Drops below altitude 10° 19:06:47 10° 360° (N) 2,123 6.6 -8.5°
Sets 19:09:07 0° 353° (N) 3,048 7.5 -8.9°
